TimeEST,TemperatureF,Dew PointF,Humidity,Sea Level PressureIn,VisibilityMPH,Wind Direction,Wind SpeedMPH,Gust SpeedMPH,PrecipitationIn,Events,Conditions,WindDirDegrees,DateUTC
12:16 AM,30.2,30.2,100,30.35,2.5,Calm,Calm,-,N/A,,Clear,0,2012-11-16 05:16:00
12:27 AM,30.2,30.2,100,30.35,3.0,Calm,Calm,-,N/A,,Clear,0,2012-11-16 05:27:00
12:52 AM,32.0,30.9,96,30.37,4.0,NNW,3.5,-,N/A,,Clear,330,2012-11-16 05:52:00
1:23 AM,32.0,30.2,93,30.34,2.5,Calm,Calm,-,N/A,,Clear,0,2012-11-16 06:23:00
1:52 AM,30.0,30.0,100,30.37,1.2,Calm,Calm,-,N/A,,Clear,0,2012-11-16 06:52:00
2:40 AM,28.4,28.4,100,30.34,0.5,NNW,3.5,-,N/A,Fog,Light Freezing Fog,330,2012-11-16 07:40:00
2:52 AM,28.0,28.0,100,30.38,1.8,NNW,3.5,-,N/A,,Clear,330,2012-11-16 07:52:00
3:07 AM,28.4,28.4,100,30.35,2.5,NW,5.8,-,N/A,,Clear,320,2012-11-16 08:07:00
3:23 AM,28.4,28.4,100,30.36,1.5,NW,5.8,-,N/A,,Clear,310,2012-11-16 08:23:00
3:52 AM,30.0,30.0,100,30.39,1.5,NW,4.6,-,N/A,,Clear,320,2012-11-16 08:52:00
4:21 AM,30.2,30.2,100,30.36,3.0,NNW,5.8,-,N/A,,Mostly Cloudy,330,2012-11-16 09:21:00
4:52 AM,30.9,30.9,100,30.41,4.0,NW,6.9,-,N/A,,Overcast,320,2012-11-16 09:52:00
5:52 AM,32.0,32.0,100,30.42,4.0,NW,4.6,-,N/A,,Overcast,320,2012-11-16 10:52:00
6:25 AM,30.2,30.2,100,30.38,5.0,NNW,3.5,-,N/A,,Overcast,330,2012-11-16 11:25:00
6:50 AM,30.2,28.4,93,30.38,4.0,Calm,Calm,-,N/A,,Scattered Clouds,0,2012-11-16 11:50:00
6:52 AM,30.9,28.9,92,30.42,4.0,Calm,Calm,-,N/A,,Partly Cloudy,0,2012-11-16 11:52:00
7:52 AM,28.9,28.0,96,30.44,4.0,North,4.6,-,N/A,,Clear,350,2012-11-16 12:52:00
8:52 AM,36.0,33.1,89,30.46,5.0,North,4.6,-,N/A,,Clear,350,2012-11-16 13:52:00
9:52 AM,37.9,35.1,89,30.47,5.0,North,3.5,-,N/A,,Scattered Clouds,10,2012-11-16 14:52:00
9:59 AM,39.2,35.6,87,30.43,5.0,North,3.5,-,N/A,,Mostly Cloudy,360,2012-11-16 14:59:00
10:08 AM,39.2,37.4,93,30.43,5.0,North,4.6,-,N/A,,Overcast,360,2012-11-16 15:08:00
10:52 AM,44.1,36.0,73,30.46,9.0,Calm,Calm,-,N/A,,Mostly Cloudy,0,2012-11-16 15:52:00
11:09 AM,42.8,35.6,76,30.43,10.0,ENE,8.1,-,N/A,,Scattered Clouds,70,2012-11-16 16:09:00
11:17 AM,44.6,35.6,71,30.43,10.0,North,8.1,-,N/A,,Mostly Cloudy,360,2012-11-16 16:17:00
11:25 AM,42.8,35.6,76,30.43,10.0,NE,6.9,-,N/A,,Partly Cloudy,40,2012-11-16 16:25:00
11:52 AM,44.1,35.1,71,30.46,10.0,NE,3.5,-,N/A,,Clear,50,2012-11-16 16:52:00
12:52 PM,46.9,34.0,61,30.45,10.0,Variable,4.6,-,N/A,,Partly Cloudy,0,2012-11-16 17:52:00
1:52 PM,48.0,35.1,61,30.45,10.0,NNW,5.8,-,N/A,,Clear,330,2012-11-16 18:52:00
2:52 PM,48.9,33.1,54,30.45,10.0,NNW,5.8,-,N/A,,Clear,330,2012-11-16 19:52:00
3:52 PM,48.0,33.1,56,30.46,10.0,North,5.8,-,N/A,,Clear,350,2012-11-16 20:52:00
4:52 PM,45.0,33.1,63,30.47,10.0,North,3.5,-,N/A,,Clear,360,2012-11-16 21:52:00
5:52 PM,39.9,33.1,77,30.48,10.0,NNW,4.6,-,N/A,,Clear,340,2012-11-16 22:52:00
6:52 PM,37.9,34.0,86,30.51,9.0,North,5.8,-,N/A,,Clear,360,2012-11-16 23:52:00
7:52 PM,37.0,34.0,89,30.52,7.0,North,5.8,-,N/A,,Clear,360,2012-11-17 00:52:00
8:52 PM,37.0,33.1,86,30.51,7.0,NNE,4.6,-,N/A,,Clear,20,2012-11-17 01:52:00
9:52 PM,35.1,33.1,92,30.52,5.0,Calm,Calm,-,N/A,,Clear,0,2012-11-17 02:52:00
10:52 PM,34.0,32.0,92,30.52,6.0,NE,3.5,-,N/A,,Clear,50,2012-11-17 03:52:00
11:52 PM,34.0,32.0,92,30.52,6.0,NE,4.6,-,N/A,,Clear,50,2012-11-17 04:52:00